Weather History for Dumas, TX

Change the Weather History Date:

Friday, August 22, 2014

  Actual Average (KBGD) Record (KBGD)
Temperature  
Mean Temperature 84 °F 79 °F  
Max Temperature 97 °F 91 °F 102 °F (2011)
Min Temperature 65 °F 67 °F 56 °F (1964)
Degree Days  
Heating Degree Days 0 0  
Month to date heating degree days 0  
Since 1 June heating degree days 3  
Since 1 July heating degree days 0  
Cooling Degree Days 19 14  
Month to date cooling degree days 351  
Year to date cooling degree days 1432  
Since 1 June cooling degree days 1235  
Growing Degree Days 34 (Base 50)    
Moisture  
Dew Point 59 °F    
Average Humidity 49    
Maximum Humidity 89    
Minimum Humidity 23    
Precipitation  
Precipitation 0.29 in 0.12 in 1.79 in (1974)
Month to date precipitation 2.20  
Year to date precipitation 15.04  
Snow  
Snow 0.00 in - 0.00 in (2013)
Month to date snowfall  
Since 1 June snowfall  
Since 1 July snowfall  
Snow Depth -    
Sea Level Pressure  
Sea Level Pressure 30.01 in    
Wind  
Wind Speed 13 mph (SSW)    
Max Wind Speed 34 mph    
Max Gust Speed 45 mph    
Visibility 10 miles    
Events Rain    
T = Trace of Precipitation, MM = Missing Value Source: NWS Daily Summary

Daily Weather History Graph

Daily Weather History Graph

Search for Another Location

Airport:

Trip Planner

Search our weather history database for the weather conditions in past years. The results will help you decide how hot, cold, wet, or windy it might be!

Date:

Astronomy

Aug. 22, 2014 Rise Set
Actual Time 7:12 AM CDT 8:28 PM CDT
Civil Twilight 6:45 AM CDT 8:55 PM CDT
Nautical Twilight 6:13 AM CDT 9:27 PM CDT
Astronomical Twilight 5:40 AM CDT 10:00 PM CDT
Moon 4:39 AM CDT (8/22) 6:37 PM CDT (8/22)
Length of Visible Light 14h 10m
Length of Day
13h 16m
Waning Crescent, 7% of the Moon is Illuminated
Aug 22
Waning Crescent
Aug 25
New
Sep 2
First Quarter
Sep 8
Full
Sep 15
Last Quarter

Hourly Weather History & Observations

Time (CDT) Temp. Heat Index Dew Point Humidity Pressure Visibility Wind Dir Wind Speed Gust Speed Precip Events Conditions
12:15 AM 77.0 °F - 60.3 °F 56% 30.01 in 10.0 mi South 11.5 mph - N/A   Clear
12:35 AM 76.6 °F - 60.3 °F 57% 30.01 in 10.0 mi South 11.5 mph - N/A   Clear
12:55 AM 76.6 °F - 60.4 °F 57% 30.00 in 10.0 mi South 13.8 mph - N/A   Clear
1:15 AM 76.5 °F - 60.4 °F 58% 30.01 in 10.0 mi South 15.0 mph - N/A   Clear
1:35 AM 77.0 °F - 60.4 °F 56% 30.00 in 10.0 mi South 15.0 mph - N/A   Clear
2:15 AM 76.1 °F - 60.8 °F 59% 30.00 in 10.0 mi SSW 16.1 mph - N/A   Clear
2:35 AM 75.4 °F - 60.4 °F 60% 30.00 in 10.0 mi SSW 15.0 mph - N/A   Clear
2:55 AM 75.4 °F - 59.9 °F 58% 30.00 in 10.0 mi SSW 13.8 mph - N/A   Clear
3:15 AM 74.8 °F - 59.9 °F 60% 30.00 in 10.0 mi SW 11.5 mph - N/A   Clear
3:35 AM 74.3 °F - 59.9 °F 61% 30.00 in 10.0 mi SW 10.4 mph - N/A   Clear
3:55 AM 73.4 °F - 59.4 °F 61% 30.00 in 10.0 mi SW 9.2 mph - N/A   Clear
4:15 AM 73.4 °F - 59.0 °F 61% 30.00 in 10.0 mi SW 9.2 mph - N/A   Clear
4:35 AM 73.4 °F - 58.6 °F 60% 30.00 in 10.0 mi SSW 10.4 mph - N/A   Clear
4:55 AM 73.8 °F - 58.1 °F 58% 30.01 in 10.0 mi SSW 11.5 mph - N/A   Clear
5:15 AM 73.4 °F - 58.1 °F 59% 30.02 in 10.0 mi SSW 11.5 mph - N/A   Clear
5:35 AM 72.5 °F - 58.3 °F 61% 30.02 in 10.0 mi SW 12.7 mph - N/A   Clear
5:55 AM 72.7 °F - 58.6 °F 61% 30.02 in 10.0 mi SSW 15.0 mph - N/A   Clear
6:15 AM 72.9 °F - 58.6 °F 61% 30.02 in 10.0 mi SSW 15.0 mph - N/A   Clear
6:35 AM 72.7 °F - 58.6 °F 61% 30.02 in 10.0 mi SSW 15.0 mph - N/A   Clear
6:55 AM 71.6 °F - 58.6 °F 64% 30.03 in 10.0 mi SSW 12.7 mph - N/A   Clear
7:15 AM 71.8 °F - 59.0 °F 64% 30.03 in 10.0 mi SSW 13.8 mph - N/A   Clear
7:35 AM 72.1 °F - 59.2 °F 64% 30.03 in 10.0 mi SSW 16.1 mph - N/A   Clear
7:55 AM 72.9 °F - 59.7 °F 63% 30.04 in 10.0 mi SW 13.8 mph - N/A   Clear
8:15 AM 72.5 °F - 59.9 °F 64% 30.04 in 10.0 mi SSW 15.0 mph - N/A   Clear
8:35 AM 72.5 °F - 60.4 °F 66% 30.05 in 10.0 mi SW 13.8 mph - N/A   Clear
8:55 AM 72.7 °F - 61.0 °F 67% 30.05 in 10.0 mi SW 12.7 mph - N/A   Clear
9:15 AM 78.8 °F - 61.7 °F 56% 30.05 in 10.0 mi SW 18.4 mph 21.9 mph N/A   Clear
9:35 AM 80.6 °F 81.5 °F 61.0 °F 51% 30.05 in 10.0 mi SW 18.4 mph 21.9 mph N/A   Clear
9:55 AM 80.8 °F 81.6 °F 61.2 °F 51% 30.05 in 10.0 mi SSW 18.4 mph 24.2 mph N/A   Clear
10:15 AM 81.3 °F 82.1 °F 60.8 °F 50% 30.05 in 10.0 mi SW 18.4 mph 24.2 mph N/A   Clear
10:35 AM 81.3 °F 82.1 °F 61.2 °F 50% 30.05 in 10.0 mi SSW 15.0 mph - N/A   Clear
10:55 AM 84.9 °F 85.2 °F 61.2 °F 45% 30.04 in 10.0 mi SSW 15.0 mph - N/A   Clear
11:15 AM 86.2 °F 86.1 °F 60.8 °F 42% 30.04 in 10.0 mi SW 18.4 mph - N/A   Clear
11:35 AM 87.8 °F 87.9 °F 61.7 °F 41% 30.04 in 10.0 mi SSW 17.3 mph 24.2 mph N/A   Clear
11:55 AM 89.4 °F 89.5 °F 61.7 °F 39% 30.05 in 10.0 mi SSW 15.0 mph - N/A   Clear
12:15 PM 90.3 °F 89.9 °F 59.9 °F 36% 30.04 in 10.0 mi SW 13.8 mph 24.2 mph N/A   Clear
12:35 PM 91.8 °F 91.2 °F 59.9 °F 34% 30.03 in 10.0 mi SW 13.8 mph 21.9 mph N/A   Clear
12:55 PM 92.7 °F 91.5 °F 57.9 °F 31% 30.03 in 10.0 mi SSW 13.8 mph 24.2 mph N/A   Clear
1:15 PM 94.1 °F 91.9 °F 54.0 °F 26% 30.02 in 10.0 mi SW 17.3 mph 21.9 mph N/A   Clear
1:35 PM 95.2 °F - 52.5 °F 24% 30.02 in 10.0 mi SSW 13.8 mph 23.0 mph N/A   Clear
1:55 PM 95.9 °F 93.6 °F 53.4 °F 24% 30.02 in 10.0 mi SSW 18.4 mph 24.2 mph N/A   Clear
2:15 PM 96.1 °F 93.8 °F 53.6 °F 24% 30.01 in 10.0 mi SW 16.1 mph 21.9 mph N/A   Clear
2:35 PM 96.8 °F 94.4 °F 53.2 °F 23% 30.00 in 10.0 mi South 18.4 mph 23.0 mph N/A   Clear
2:55 PM 97.2 °F 94.9 °F 53.4 °F 23% 30.00 in 10.0 mi South 13.8 mph 24.2 mph N/A   Clear
3:15 PM 97.5 °F 95.3 °F 53.8 °F 23% 29.99 in 10.0 mi SSW 15.0 mph 18.4 mph N/A   Unknown
3:35 PM 97.9 °F 95.8 °F 54.3 °F 23% 29.97 in 10.0 mi SSE 16.1 mph - N/A   Clear
3:55 PM 91.0 °F 89.7 °F 57.4 °F 32% 30.00 in 7.0 mi South 34.5 mph 44.9 mph N/A   Scattered Clouds
4:15 PM 76.8 °F - 66.0 °F 69% 29.98 in 10.0 mi South 4.6 mph - N/A   Scattered Clouds
4:35 PM 86.0 °F 85.4 °F 59.4 °F 40% 29.99 in 10.0 mi WSW 12.7 mph - N/A   Clear
4:55 PM 90.7 °F 89.2 °F 56.8 °F 32% 29.98 in 10.0 mi SW 11.5 mph - N/A   Clear
5:15 PM 92.8 °F 90.9 °F 55.6 °F 28% 29.96 in 10.0 mi SW 11.5 mph 16.1 mph N/A   Clear
5:35 PM 93.6 °F 91.8 °F 55.4 °F 28% 29.95 in 10.0 mi South 8.1 mph - N/A   Clear
5:55 PM 88.5 °F 87.8 °F 58.8 °F 37% 29.95 in 7.0 mi SSW 6.9 mph 24.2 mph N/A   Clear
6:15 PM 91.2 °F 89.9 °F 57.4 °F 32% 29.95 in 10.0 mi SSE 8.1 mph - N/A   Clear
6:55 PM 89.4 °F 88.2 °F 57.6 °F 34% 29.93 in 10.0 mi South 12.7 mph 16.1 mph N/A   Clear
7:15 PM 84.7 °F 84.0 °F 57.7 °F 40% 29.95 in 10.0 mi West 11.5 mph - N/A   Mostly Cloudy
7:35 PM 81.5 °F 81.8 °F 59.5 °F 47% 29.95 in 10.0 mi WNW 8.1 mph 13.8 mph N/A   Scattered Clouds
7:55 PM 78.1 °F - 60.3 °F 54% 29.95 in 10.0 mi NW 3.5 mph - N/A   Clear
8:15 PM 77.4 °F - 59.2 °F 53% 29.96 in 10.0 mi Calm Calm - N/A   Clear
8:55 PM 76.8 °F - 59.9 °F 56% 29.97 in 10.0 mi WSW 5.8 mph - N/A   Clear
9:15 PM 78.8 °F - 59.4 °F 51% 29.98 in 10.0 mi WSW 3.5 mph - N/A   Clear
9:35 PM 77.9 °F - 58.5 °F 51% 30.00 in 10.0 mi SW 19.6 mph 25.3 mph N/A   Scattered Clouds
9:55 PM 78.8 °F - 58.3 °F 49% 30.00 in 7.0 mi SW 25.3 mph 34.5 mph N/A   Mostly Cloudy
10:15 PM 77.5 °F - 56.5 °F 48% 30.01 in 10.0 mi South 17.3 mph 23.0 mph N/A   Scattered Clouds
10:35 PM 78.1 °F - 54.1 °F 43% 30.03 in 10.0 mi SSW 20.7 mph 26.5 mph N/A   Mostly Cloudy
10:55 PM 65.8 °F - 62.6 °F 89% 30.05 in 2.0 mi South 20.7 mph 34.5 mph 0.29 in Rain Light Rain